User: anonymous   Login
Location: Napier
(39.4830°S, 176.9170°E)
Time: 23:56:28
(UTC+13:00)
Language:

Cosmos 1709 Rocket - Orbit

View from above orbital plane
View from above orbital plane
View from above satellite
View from above satellite

Ground track
Ground track

The orbit data is extracted from the following two-line orbital elements,

1 16369U 85116B   19078.45506185 -.00000056 +00000-0 -72215-4 0  9999
2 16369 082.9368 231.9917 0036818 164.8626 213.6649 13.76833818669789
Epoch (UTC): 19 March 2019 10:55:17
Eccentricity: 0.0036818
inclination: 82.9368°
perigee height: 948 km
apogee height: 1002 km
right ascension of ascending node: 231.9917°
argument of perigee: 164.8626°
revolutions per day: 13.76833818
mean anomaly at epoch: 213.6649°
orbit number at epoch: 66978

The dashed part of the orbit path shows where the satellite is in the earth's shadow,  

DLR